This is the latest recevied weather packets stored in our database for station/object W2SRH. If no packets are shown the sender has not sent any weather packets the latest 10 day(s).
| Time | Temp. | Humidity | Pressure | Rain* | Wind** | Luminosity | Snow |
|---|---|---|---|---|---|---|---|
| 1788541144 | 29.44° C | 57% | 1004.1 hPa | 0 mm | 1.34 m/s, 317° | - | - |
| 1788540573 | 28.89° C | 59% | 1004.1 hPa | 0 mm | 2.24 m/s, 314° | - | - |
| 1788540558 | 28.89° C | 59% | 1004.3 hPa | 0 mm | 1.34 m/s, 338° | - | - |
| 1788540543 | 29.44° C | 57% | 1004.2 hPa | 0 mm | 1.34 m/s, 312° | - | - |
| 1788539947 | 28.89° C | 58% | 1004 hPa | 0 mm | 1.34 m/s, 332° | - | - |
| 1788539344 | 28.89° C | 59% | 1004.1 hPa | 0 mm | 2.24 m/s, 314° | - | - |
| 1788538744 | 28.89° C | 59% | 1004.3 hPa | 0 mm | 1.34 m/s, 338° | - | - |
| 1788538650 | 28.89° C | 58% | 1004.3 hPa | 0 mm | 1.79 m/s, 328° | - | - |
| 1788538641 | 28.89° C | 60% | 1004.2 hPa | 0 mm | 1.34 m/s, 326° | - | - |
| 1788538143 | 28.33° C | 60% | 1004.4 hPa | 0 mm | 1.79 m/s, 330° | - | - |
| 1788537543 | 28.89° C | 58% | 1004.3 hPa | 0 mm | 1.79 m/s, 328° | - | - |
| 1788536944 | 28.89° C | 60% | 1004.2 hPa | 0 mm | 1.34 m/s, 326° | - | - |
| 1788536344 | 28.89° C | 60% | 1004.3 hPa | 0 mm | 1.34 m/s, 342° | - | - |
| 1788535747 | 28.33° C | 63% | 1004.3 hPa | 0 mm | 1.79 m/s, 296° | - | - |
| 1788535145 | 27.78° C | 64% | 1004.5 hPa | 0 mm | 0.89 m/s, 23° | - | - |
| 1788534813 | 28.33° C | 65% | 1004.5 hPa | 0 mm | 0.89 m/s, 351° | - | - |
| 1788534545 | 28.33° C | 64% | 1004.5 hPa | 0 mm | 1.34 m/s, 344° | - | - |
| 1788533944 | 28.33° C | 65% | 1004.5 hPa | 0 mm | 0.89 m/s, 351° | - | - |
| 1788533344 | 27.78° C | 66% | 1004.4 hPa | 0 mm | 1.34 m/s, 54° | - | - |
| 1788532744 | 27.22° C | 66% | 1004.3 hPa | 0 mm | 1.79 m/s, 332° | - | - |
| 1788532175 | 27.78° C | 66% | 1004.3 hPa | 0 mm | 1.34 m/s, 328° | - | - |
| 1788531544 | 27.22° C | 67% | 1004.2 hPa | 0 mm | 1.34 m/s, 47° | - | - |
| 1788530971 | 26.67° C | 69% | 1004.2 hPa | 0 mm | 0.89 m/s, 344° | - | - |
| 1788530943 | 27.22° C | 67% | 1004.2 hPa | 0 mm | 1.34 m/s, 313° | - | - |
| 1788530344 | 27.22° C | 69% | 1004.3 hPa | 0 mm | 0.89 m/s, 321° | - | - |
* Rain latest hour (hover to see other rain measurements)
** Current wind speed in m/s (hover to see current wind gust speed)